This demonstration page uses our WeatherBlox Daily Observations layout. Learn more.

41.55636, -103.73856

Hourly Observations for March 10, 2019

Temp ( °F °C ) Dew Point ( °F °C ) Humidity (%) Winds ( mph kmh ) Pressure ( in mb ) Visibility ( mi km ) Precip ( " mm )
12:53 am 00:53 Clear 10 -12.2 9 -12.8 95 95 NW 3 6 30.15 1021 10 16.09344 0 0
1:53 am 01:53 Clear 8 -13.3 7 -13.9 95 95 N 9 15 30.15 1021 10 16.09344 0 0
3:53 am 03:53 Clear 6 -14.4 4 -15.6 91 91 W 5 7 30.15 1021 10 16.09344 0 0
4:53 am 04:53 Clear 7 -13.9 5 -15 91 91 NE 5 7 30.15 1021 10 16.09344 0 0
5:53 am 05:53 Mostly Clear 7 -13.9 5 -15 91 91 Calm 30.18 1022 10 16.09344 0 0
6:53 am 06:53 Clear 7 -13.9 5 -15 91 91 NE 6 9 30.21 1023 10 16.09344 0 0
7:53 am 07:53 Partly Cloudy 5 -15 4 -15.6 95 95 Calm 30.24 1024 10 16.09344 0 0
8:53 am 08:53 Cloudy 13 -10.6 11 -11.7 92 92 Calm 30.21 1023 10 16.09344 0 0
9:53 am 09:53 Cloudy 22 -5.6 18 -7.8 85 85 Calm 30.21 1023 10 16.09344 0 0
10:53 am 10:53 Sunny 22 -5.6 19 -7.2 89 89 SSE 5 7 30.21 1023 10 16.09344 0 0
11:53 am 11:53 Partly Cloudy 27 -2.8 21 -6.1 78 78 ENE 3 6 30.21 1023 10 16.09344 0 0
12:53 pm 12:53 Sunny 30 -1.1 26 -3.3 85 85 ESE 3 6 30.18 1022 10 16.09344 0 0
1:53 pm 13:53 Sunny 35 1.7 29 -1.7 78 78 E 5 7 30.15 1021 10 16.09344 0 0
2:53 pm 14:53 Sunny 36 2.2 31 -0.6 82 82 Calm 30.12 1020 10 16.09344 0 0
3:53 pm 15:53 Sunny 39 3.9 32 0 76 76 Calm 30.12 1020 10 16.09344 0 0
4:53 pm 16:53 Sunny 40 4.4 32 0 73 73 NNE 8 13 30.12 1020 10 16.09344 0 0
5:53 pm 17:53 Cloudy 37 2.8 31 -0.6 79 79 NNE 12 19 30.15 1021 10 16.09344 0 0
6:53 pm 18:53 Cloudy 36 2.2 31 -0.6 82 82 NNE 10 17 30.15 1021 10 16.09344 0 0
7:53 pm 19:53 Cloudy 36 2.2 31 -0.6 82 82 Calm 30.18 1022 10 16.09344 0 0
8:53 pm 20:53 Cloudy 35 1.7 30 -1.1 82 82 Calm 30.21 1023 10 16.09344 0 0
9:53 pm 21:53 Cloudy 35 1.7 29 -1.7 78 78 NNW 3 6 30.18 1022 10 16.09344 0 0
10:53 pm 22:53 Cloudy 35 1.7 28 -2.2 76 76 Calm 30.21 1023 10 16.09344 0 0
11:53 pm 23:53 Cloudy 33 0.6 28 -2.2 82 82 E 6 9 30.21 1023 10 16.09344 0 0

Powered by AerisWeather